Weather History for Pinedale, WY

Change the Weather History Date:

Tuesday, June 25, 2013

  Actual Average (KBPI) Record (KBPI)
Temperature  
Mean Temperature 56 °F 58 °F  
Max Temperature 69 °F 76 °F 89 °F (2002)
Min Temperature 44 °F 40 °F 26 °F (1984)
Degree Days  
Heating Degree Days 8 7  
Month to date heating degree days 271  
Since 1 June heating degree days 271  
Since 1 July heating degree days 10397  
Cooling Degree Days 0 0  
Month to date cooling degree days 0  
Year to date cooling degree days 0  
Since 1 June cooling degree days 0  
Growing Degree Days 6 (Base 50)    
Moisture  
Dew Point 40 °F    
Average Humidity 58    
Maximum Humidity 100    
Minimum Humidity 26    
Precipitation  
Precipitation 0.00 in 0.02 in 0.15 in (2004)
Month to date precipitation 0.69  
Year to date precipitation 3.16  
Sea Level Pressure  
Sea Level Pressure 30.12 in    
Wind  
Wind Speed 4 mph (West)    
Max Wind Speed 15 mph    
Max Gust Speed 21 mph    
Visibility 10 miles    
Events Rain    
T = Trace of Precipitation, MM = Missing Value Source: NWS Daily Summary

Daily Weather History Graph

Daily Weather History Graph

Search for Another Location

Airport:

Trip Planner

Search our weather history database for the weather conditions in past years. The results will help you decide how hot, cold, wet, or windy it might be!

Date:

Astronomy

Jun. 25, 2013 Rise Set
Actual Time 5:42 AM MDT 9:01 PM MDT
Civil Twilight 5:06 AM MDT 9:36 PM MDT
Nautical Twilight 4:21 AM MDT 10:22 PM MDT
Astronomical Twilight 3:25 AM MDT 11:18 PM MDT
Moon 10:44 PM MDT (6/25) 8:30 AM MDT (6/25)
Length of Visible Light 16h 29m
Length of Day
15h 19m
Waning Gibbous, 92% of the Moon is Illuminated
Jun 25
Waning Gibbous
Jun 29
Last Quarter
Jul 8
New
Jul 15
First Quarter
Jul 22
Full

Hourly Weather History & Observations

Time (MDT) Temp. Dew Point Humidity Pressure Visibility Wind Dir Wind Speed Gust Speed Precip Events Conditions
12:15 AM 50.0 °F 46.4 °F 87% 30.04 in 10.0 mi North 4.6 mph - N/A Rain Light Rain
12:35 AM 50.0 °F 46.4 °F 87% 30.03 in 10.0 mi North 4.6 mph - N/A Rain Light Rain
12:55 AM 50.0 °F 46.4 °F 87% 30.03 in 10.0 mi Calm Calm - N/A Rain Light Rain
1:15 AM 50.0 °F 46.4 °F 87% 30.03 in 10.0 mi Calm Calm - N/A Rain Rain
1:35 AM 50.0 °F 48.2 °F 94% 30.04 in 10.0 mi WSW 3.5 mph - N/A   Drizzle
1:55 AM 50.0 °F 48.2 °F 94% 30.05 in 10.0 mi Calm Calm - N/A   Drizzle
2:15 AM 50.0 °F 46.4 °F 87% 30.05 in 10.0 mi Calm Calm - N/A   Overcast
2:35 AM 50.0 °F 46.4 °F 87% 30.05 in 10.0 mi Calm Calm - N/A   Drizzle
2:55 AM 50.0 °F 46.4 °F 87% 30.05 in 10.0 mi Calm Calm - N/A   Overcast
3:15 AM 48.2 °F 48.2 °F 100% 30.04 in 10.0 mi Calm Calm - N/A Rain Light Rain
3:35 AM 48.2 °F 46.4 °F 93% 30.04 in 10.0 mi ESE 3.5 mph - N/A   Overcast
3:55 AM 48.2 °F 48.2 °F 100% 30.05 in 10.0 mi SSE 3.5 mph - N/A   Overcast
4:15 AM 48.2 °F 48.2 °F 100% 30.05 in 10.0 mi Calm Calm - N/A   Overcast
4:35 AM 48.2 °F 46.4 °F 93% 30.05 in 10.0 mi Calm Calm - N/A   Overcast
4:55 AM 48.2 °F 46.4 °F 93% 30.06 in 10.0 mi Calm Calm - N/A   Overcast
5:15 AM 48.2 °F 46.4 °F 93% 30.06 in 10.0 mi Calm Calm - N/A   Mostly Cloudy
5:35 AM 46.4 °F 46.4 °F 100% 30.06 in 10.0 mi Calm Calm - N/A   Mostly Cloudy
5:55 AM 46.4 °F 46.4 °F 100% 30.08 in 10.0 mi Calm Calm - N/A   Mostly Cloudy
6:15 AM 44.6 °F 44.6 °F 100% 30.07 in 10.0 mi Calm Calm - N/A   Overcast
6:35 AM 46.4 °F 46.4 °F 100% 30.08 in 10.0 mi Calm Calm - N/A   Overcast
6:55 AM 46.4 °F 46.4 °F 100% 30.09 in 10.0 mi Calm Calm - N/A   Overcast
7:15 AM 46.4 °F 46.4 °F 100% 30.09 in 10.0 mi Calm Calm - N/A   Overcast
7:35 AM 50.0 °F 48.2 °F 94% 30.09 in 10.0 mi Calm Calm - N/A   Mostly Cloudy
7:55 AM 50.0 °F 46.4 °F 87% 30.10 in 10.0 mi Calm Calm - N/A   Mostly Cloudy
8:15 AM 51.8 °F 48.2 °F 88% 30.11 in 10.0 mi Calm Calm - N/A   Mostly Cloudy
8:35 AM 53.6 °F 48.2 °F 82% 30.11 in 10.0 mi Calm Calm - N/A   Scattered Clouds
8:55 AM 53.6 °F 44.6 °F 72% 30.12 in 10.0 mi WNW 3.5 mph - N/A   Clear
9:15 AM 55.4 °F 44.6 °F 67% 30.13 in 10.0 mi NNW 5.8 mph - N/A   Clear
9:35 AM 57.2 °F 44.6 °F 63% 30.13 in 10.0 mi NNW 6.9 mph - N/A   Mostly Cloudy
9:55 AM 55.4 °F 42.8 °F 63% 30.13 in 10.0 mi Calm Calm - N/A   Mostly Cloudy
10:15 AM 59.0 °F 41.0 °F 51% 30.13 in 10.0 mi West 8.1 mph - N/A   Scattered Clouds
10:35 AM 59.0 °F 41.0 °F 51% 30.13 in 10.0 mi North 6.9 mph - N/A   Scattered Clouds
10:55 AM 59.0 °F 41.0 °F 51% 30.13 in 10.0 mi West 5.8 mph - N/A   Scattered Clouds
11:15 AM 60.8 °F 39.2 °F 45% 30.13 in 10.0 mi Calm Calm - N/A   Mostly Cloudy
11:35 AM 59.0 °F 39.2 °F 48% 30.13 in 10.0 mi North 8.1 mph - N/A   Mostly Cloudy
11:55 AM 60.8 °F 37.4 °F 42% 30.13 in 10.0 mi North 6.9 mph - N/A   Mostly Cloudy
12:15 PM 62.6 °F 35.6 °F 37% 30.13 in 10.0 mi SW 8.1 mph - N/A   Mostly Cloudy
12:35 PM 64.4 °F 33.8 °F 32% 30.13 in 10.0 mi WNW 8.1 mph 16.1 mph N/A   Scattered Clouds
12:55 PM 62.6 °F 35.6 °F 37% 30.13 in 10.0 mi NNW 8.1 mph - N/A   Mostly Cloudy
1:15 PM 64.4 °F 35.6 °F 34% 30.13 in 10.0 mi West 5.8 mph - N/A   Overcast
1:35 PM 66.2 °F 33.8 °F 30% 30.13 in 10.0 mi WNW 10.4 mph - N/A   Scattered Clouds
1:55 PM 68.0 °F 32.0 °F 26% 30.13 in 10.0 mi WNW 9.2 mph 16.1 mph N/A   Mostly Cloudy
2:15 PM 66.2 °F 32.0 °F 28% 30.13 in 10.0 mi WSW 11.5 mph - N/A   Mostly Cloudy
2:35 PM 68.0 °F 33.8 °F 28% 30.13 in 10.0 mi WSW 12.7 mph 19.6 mph N/A   Overcast
2:55 PM 68.0 °F 33.8 °F 28% 30.13 in 10.0 mi West 8.1 mph 16.1 mph N/A   Overcast
3:15 PM 68.0 °F 32.0 °F 26% 30.13 in 10.0 mi WSW 12.7 mph 20.7 mph N/A   Mostly Cloudy
3:35 PM 66.2 °F 33.8 °F 30% 30.14 in 10.0 mi NW 10.4 mph 16.1 mph N/A   Overcast
3:55 PM 68.0 °F 33.8 °F 28% 30.14 in 10.0 mi Calm Calm - N/A   Overcast
4:15 PM 68.0 °F 33.8 °F 28% 30.14 in 10.0 mi WNW 9.2 mph - N/A   Overcast
4:35 PM 68.0 °F 33.8 °F 28% 30.14 in 10.0 mi West 15.0 mph 18.4 mph N/A   Overcast
4:55 PM 68.0 °F 33.8 °F 28% 30.14 in 10.0 mi WNW 10.4 mph - N/A   Mostly Cloudy
5:15 PM 69.8 °F 33.8 °F 27% 30.14 in 10.0 mi West 11.5 mph 19.6 mph N/A   Scattered Clouds
5:35 PM 69.8 °F 33.8 °F 27% 30.15 in 10.0 mi West 9.2 mph - N/A   Mostly Cloudy
5:55 PM 68.0 °F 33.8 °F 28% 30.15 in 10.0 mi West 12.7 mph 18.4 mph N/A   Mostly Cloudy
6:15 PM 68.0 °F 35.6 °F 30% 30.15 in 10.0 mi WNW 11.5 mph - N/A   Mostly Cloudy
6:35 PM 68.0 °F 33.8 °F 28% 30.15 in 10.0 mi West 11.5 mph 16.1 mph N/A   Scattered Clouds
6:55 PM 68.0 °F 35.6 °F 30% 30.15 in 10.0 mi WSW 9.2 mph - N/A   Scattered Clouds
7:15 PM 68.0 °F 35.6 °F 30% 30.16 in 10.0 mi SW 10.4 mph - N/A   Mostly Cloudy
7:35 PM 68.0 °F 35.6 °F 30% 30.15 in 10.0 mi WSW 11.5 mph 18.4 mph N/A   Mostly Cloudy
7:55 PM 68.0 °F 33.8 °F 28% 30.16 in 10.0 mi West 8.1 mph - N/A   Mostly Cloudy
8:15 PM 66.2 °F 33.8 °F 30% 30.16 in 10.0 mi WSW 11.5 mph - N/A   Overcast
8:35 PM 64.4 °F 33.8 °F 32% 30.17 in 10.0 mi SW 6.9 mph - N/A   Overcast
8:55 PM 64.4 °F 33.8 °F 32% 30.18 in 10.0 mi SW 3.5 mph - N/A   Overcast
9:15 PM 62.6 °F 33.8 °F 34% 30.18 in 10.0 mi SSW 4.6 mph - N/A   Overcast
9:35 PM 60.8 °F 33.8 °F 36% 30.19 in 10.0 mi SSW 6.9 mph - N/A   Mostly Cloudy
9:55 PM 59.0 °F 33.8 °F 39% 30.19 in 10.0 mi SSW 5.8 mph - N/A   Scattered Clouds
10:15 PM 59.0 °F 33.8 °F 39% 30.19 in 10.0 mi SW 3.5 mph - N/A   Clear
10:35 PM 53.6 °F 33.8 °F 47% 30.21 in 10.0 mi West 5.8 mph - N/A   Clear
10:55 PM 51.8 °F 35.6 °F 54% 30.21 in 10.0 mi WNW 3.5 mph - N/A   Clear
11:15 PM 51.8 °F 37.4 °F 58% 30.20 in 10.0 mi Calm Calm - N/A   Clear
11:35 PM 50.0 °F 37.4 °F 62% 30.21 in 10.0 mi Calm Calm - N/A   Clear
11:55 PM 50.0 °F 37.4 °F 62% 30.20 in 10.0 mi NNE 3.5 mph - N/A   Clear